Sandberg, CA

11:30 AM PDT on October 18, 2017 (GMT -0700)
Sandberg

Weather History for KSDB - November, 2013

Change the Weather History Date:

Friday, November 15, 2013

  Actual Average Record
Temperature  
Mean Temperature 50 °F 49 °F  
Max Temperature 59 °F 56 °F 79 °F (1995)
Min Temperature 41 °F 43 °F 22 °F (1964)
Degree Days  
Heating Degree Days 15 16  
Month to date heating degree days 86 200  
Since 1 July heating degree days 303 501  
Cooling Degree Days 0 0  
Month to date cooling degree days 4 0  
Year to date cooling degree days 1565 996  
Growing Degree Days 1 (Base 50)    
Moisture  
Dew Point 34 °F    
Average Humidity 50    
Maximum Humidity 70    
Minimum Humidity 30    
Precipitation  
Precipitation 0.00 in 0.02 in 1.85 in (1965)
Month to date precipitation 0.00 0.35  
Year to date precipitation 3.22 9.65  
Since 1 July precipitation 0.31  
Sea Level Pressure  
Sea Level Pressure 29.69 in    
Wind  
Wind Speed 13 mph (NW)    
Max Wind Speed 28 mph    
Max Gust Speed 35 mph    
Visibility 9 miles    
Events      
T = Trace of Precipitation, MM = Missing Value Source: NWS Daily Summary

Daily Weather History Graph

Daily Weather History Graph

Search for Another Location

Airport or City:

Trip Planner

Search our weather history database for the weather conditions in past years. The results will help you decide how hot, cold, wet, or windy it might be!

Date:

Astronomy

Nov. 15, 2013 Rise Set
Actual Time 6:29 AM PST 4:49 PM PST
Civil Twilight 6:02 AM PST 5:16 PM PST
Nautical Twilight 5:31 AM PST 5:46 PM PST
Astronomical Twilight 5:01 AM PST 6:16 PM PST
Moon 3:46 PM PST (11/15) 4:34 AM PST (11/15)
Length of Visible Light 11h 14m
Length of Day
10h 20m
Waxing Gibbous, 97% of the Moon is Illuminated
Nov 15
Waxing Gibbous
Nov 17
Full
Nov 25
Last Quarter
Dec 2
New
Dec 9
First Quarter

Hourly Weather History & Observations

Time (PST) Temp. Windchill Dew Point Humidity Pressure Visibility Wind Dir Wind Speed Gust Speed Precip Events Conditions
12:42 AM 57.2 °F - 26.6 °F 31% 29.87 in 10.0 mi WNW 16.1 mph - N/A   Clear
12:48 AM 57.9 °F - 27.0 °F 31% 29.72 in 10.0 mi NW 16.1 mph - N/A   Clear
1:48 AM 53.1 °F - 30.0 °F 41% 29.71 in 10.0 mi NNW 19.6 mph 29.9 mph N/A   Clear
2:48 AM 52.0 °F - 30.9 °F 45% 29.69 in 10.0 mi NNW 20.7 mph - N/A   Clear
3:48 AM 53.1 °F - 30.0 °F 41% 29.67 in 10.0 mi NW 18.4 mph - N/A   Clear
4:48 AM 48.9 °F - 36.0 °F 61% 29.67 in 10.0 mi NNW 20.7 mph 26.5 mph N/A   Clear
5:48 AM 48.0 °F - 36.0 °F 63% 29.68 in 9.0 mi NNW 13.8 mph - N/A   Clear
6:48 AM 45.0 °F 38.2 °F 35.1 °F 68% 29.69 in 8.0 mi North 15.0 mph - N/A   Clear
7:48 AM 48.9 °F - 37.9 °F 66% 29.71 in 6.0 mi Variable 6.9 mph 21.9 mph N/A   Haze
8:48 AM 50.0 °F - 37.0 °F 61% 29.71 in 8.0 mi North 6.9 mph 23.0 mph N/A   Clear
9:48 AM 53.1 °F - 37.9 °F 57% 29.71 in 7.0 mi ENE 5.8 mph 18.4 mph N/A   Partly Cloudy
10:48 AM 51.1 °F - 37.0 °F 59% 29.68 in 9.0 mi NNW 17.3 mph - N/A   Clear
11:48 AM 51.1 °F - 37.0 °F 59% 29.67 in 10.0 mi NNW 11.5 mph - N/A   Clear
12:48 PM 54.0 °F - 34.0 °F 47% 29.63 in 10.0 mi NNW 17.3 mph 21.9 mph N/A   Clear
1:48 PM 52.0 °F - 34.0 °F 50% 29.64 in 10.0 mi NNW 18.4 mph - N/A   Clear
2:48 PM 52.0 °F - 35.1 °F 53% 29.64 in 10.0 mi NNW 17.3 mph - N/A   Clear
3:48 PM 50.0 °F - 35.1 °F 57% 29.65 in 9.0 mi NW 8.1 mph - N/A   Clear
4:48 PM 48.0 °F - 33.1 °F 56% 29.66 in 10.0 mi NW 12.7 mph - N/A   Clear
5:48 PM 46.0 °F 38.8 °F 35.1 °F 66% 29.68 in 10.0 mi NW 18.4 mph - N/A   Clear
6:48 PM 45.0 °F 39.7 °F 34.0 °F 65% 29.70 in 10.0 mi NW 10.4 mph - N/A   Clear
7:48 PM 44.1 °F 39.5 °F 33.1 °F 65% 29.71 in 10.0 mi NNW 8.1 mph - N/A   Clear
8:48 PM 42.1 °F 36.1 °F 34.0 °F 73% 29.72 in 10.0 mi WNW 10.4 mph - N/A   Clear
9:48 PM 43.0 °F 38.8 °F 34.0 °F 71% 29.71 in 10.0 mi West 6.9 mph - N/A   Clear
10:48 PM 42.1 °F 40.2 °F 33.1 °F 70% 29.72 in 10.0 mi WSW 3.5 mph - N/A   Clear
11:48 PM 44.1 °F 38.1 °F 32.0 °F 63% 29.72 in 10.0 mi NW 11.5 mph - N/A   Clear